IRIDIUM 33 DEB, 34376

Orbit data source: Space-Track

IRIDIUM 33 DEB, 34376 is space debris in LEO originally from a launch on Sun, 14 Sep 1997 UTC launched from the Tyuratam Missile And Space Complex (TTMTR). The debris from Iridium 33, an American commercial communications satellite, has been tracked extensively since its accidental collision with the defunct Russian satellite Cosmos 2251 in 2009. This event, occurring at high speed in low Earth orbit (LEO), generated thousands of pieces of space debris, significantly increasing the risk of further collisions. The Iridium 33 debris cloud has impacted space traffic management and orbital debris mitigation strategies, making it a subject of ongoing study in space situational awareness.

Loading next visibility...
Identifier
34376, 1997-051FU
Orbit
LEO
Country
Flag of USUS
Related business
Manufacturer
Unknown
Mission
Spacecraft
Bus & Motor
Unknown
Mass
Unknown
Launch date (UTC)
1997-09-14 (29 years ago)
Launch vehicle
Unknown
Launch site
Tyuratam Missile And Space Complex (TTMTR)
Object type
Payload
Rocket body
Debris
Shape & HBR
Unknown shape, 0.1 m
Radar Cross Section
Small (<0.1 m²)

Expand to show TLE details & history
Last TLE update: 5 hours ago

TLE from 5 hours ago
0 IRIDIUM 33 DEB
1 34376U 97051FU  26121.51867632  .00010422  00000-0  19165-2 0  9998
2 34376  86.2914 303.5417 0026259  58.0018 302.3741 14.65325453900528
Epoch: 2026-05-01T12:26Z
TLE epoch observation values (Epoch: 2026-05-01T12:26:53.634Z)
Latitude
-0.00005°
Longitude
-102.63155°
Altitude
669.238 km
Speed
7.528 km/s
True Right ascension
20h 14m 10s
True Declination
0° 00' 00"
Sunlit
Object was in daylight at epoch
Visualization orbit readout
Latitude
Unknown
Longitude
Unknown
Altitude
Unknown
Speed
Unknown
Apparent Right ascension
Unknown
Apparent Declination
Unknown
Sunlit
N/A
Visualization observer readout
Local Sidereal Time
01:16:23
Azimuth
Unknown
Elevation
Unknown
Doppler factor
Unknown
Orbital elements
Apogee altitude
691.469 km
Perigee altitude
654.438 km
Semi-major axis
7,051.091 km
Eccentricity
0.00263
Inclination
86.2914°
RAAN
303.5417°
Arg. of periapsis
58.0018°
True anomaly
302.11952°
Mean anomaly
302.3741°
Eccentric anomaly
302.24685°
Mean motion
3.66572 °/min
Orbital period
98.21 mins
BSTAR
0.0019165
Loading maneuver chart data...
Computing Atmospheric mass density...
Loading historical data...
Loading historical data...
Loading historical data...
Loading historical data...
Loading historical data...
Loading historical data...
Loading historical data...

Documentation

Showing up to 5 results
|